• Join FlightAware (Why Join?)
  • Login
  • US Flag GB Flag 
16:49 EST


 

Airport Tracker/Info


-or-


 

Live Flight TrackerFlight Track Log ✈ N53NW ✈ 08-Jul-2013 ✈ KPNE - KMVY

Flight Track Log - Related Links

Times and Time Zones

All times are in EDT time to prevent confusion due to time zone crossing. See the N53NW flight status page for this flight to view local times or setup timezone preferences in your user account.

Time Position Orientation Groundspeed Altitude Reporting Facility
EDT Latitude Longitude Course Direction KTS MPH feet Rate Location/Type
11:55 40.0667 -75.0333 226° Southwest 161 185 800  Level Philadelphia TRACON
11:56 40.0167 -75.1000 226° Southwest 240 276 4,400 3,480 Climbing Philadelphia TRACON
11:57 39.9833 -75.1667 237° Southwest 221 254 8,500 2,760 Climbing Philadelphia TRACON
11:58 39.9500 -75.2167 229° Southwest 245 282 10,000 720 Climbing Philadelphia TRACON
11:59 39.8833 -75.2833 218° Southwest 257 296 10,000 60 Level Philadelphia TRACON
12:00 39.8000 -75.2667 171° South 310 357 10,200 900 Climbing Philadelphia TRACON
12:01 39.7167 -75.2500 171° South 299 344 11,900 900 Climbing Philadelphia TRACON
12:02 39.7000 -75.1333 100° East 352 405 12,000  Climbing Philadelphia TRACON
12:04 39.7519 -74.8914 74° East 355 409 12,000 300 Level New York Center
12:05 39.7786 -74.7794 73° East 355 409 13,100 1,500 Climbing New York Center
12:06 39.7994 -74.6589 77° East 355 409 15,100 1,980 Climbing New York Center
12:07 39.8078 -74.5297 85° East 355 409 17,100 1,860 Climbing New York Center
12:08 39.8547 -74.4294 59° Northeast 357 411 18,800 1,920 Climbing New York Center
12:10 39.9519 -74.2344 57° Northeast 377 434 22,100 1,560 Climbing Boston Center
12:11 40.0189 -74.1008 57° Northeast 388 447 23,000 420 Climbing Boston Center
12:12 40.0831 -73.9803 55° Northeast 399 459 23,000  Level Boston Center
12:13 40.1450 -73.8569 57° Northeast 399 459 23,000  Level Boston Center
12:14 40.2006 -73.7522 55° Northeast 399 459 23,000  Level Boston Center
12:15 40.2686 -73.6150 57° Northeast 399 459 23,000  Level Boston Center
12:16 40.3303 -73.4881 57° Northeast 404 465 23,000  Level Boston Center
12:17 40.3378 -73.3494 86° East 385 443 23,000  Level Boston Center
12:19 40.3272 -73.0769 93° East 385 443 23,000  Level Boston Center
12:20 40.3236 -72.9328 92° East 385 443 23,000  Level Boston Center
12:21 40.3158 -72.7883 94° East 391 450 23,000  Level Boston Center
12:22 40.3475 -72.6497 73° East 384 442 23,000  Level Boston Center
12:23 40.4144 -72.5247 55° Northeast 389 448 23,000 -60 Level Boston Center
12:24 40.4747 -72.3964 58° Northeast 404 465 22,900 -780 Descending Boston Center
12:25 40.5456 -72.2761 52° Northeast 404 465 21,500 -1,500 Descending Boston Center
12:26 40.6244 -72.1175 57° Northeast 406 467 19,600 -1,440 Descending Boston Center
12:27 40.6783 -72.0106 56° Northeast 400 460 18,400 -1,380 Descending Boston Center
12:28 40.7442 -71.8758 57° Northeast 395 455 16,900 -1,500 Descending Boston Center
12:29 40.8019 -71.7628 56° Northeast 390 449 15,500 -1,500 Descending Boston Center
12:30 40.8392 -71.6939 54° Northeast 375 432 14,400 -1,500 Descending Boston Center
12:31 40.8925 -71.5861 57° Northeast 360 414 13,000 -1,380 Descending Boston Center
12:32 40.9458 -71.4783 57° Northeast 350 403 11,600 -1,380 Descending Boston Center
12:33 40.9989 -71.3619 59° Northeast 347 399 10,200 -1,380 Descending Boston Center
12:34 41.0269 -71.2461 72° East 320 368 8,800 -1,200 Descending Boston Center
12:35 41.0508 -71.1436 73° East 308 354 7,500 -1,380 Descending Boston Center
12:36 41.1036 -71.0186 61° Northeast 292 336 5,800 -1,260 Descending Boston Center
12:37 41.1672 -70.9567 36° Northeast 287 330 5,000 -1,020 Descending Boston Center
12:38 41.2292 -70.9056 32° Northeast 271 312 3,800 -1,380 Descending Boston Center
12:39 41.2803 -70.8297 48° Northeast 266 306 2,300 -900 Descending Boston Center
12:40 41.3311 -70.7539 48° Northeast 266 306 2,000 -180 Descending Boston Center
12:41 41.3761 -70.6889 47° Northeast 256 295 2,000 -60 Level Boston Center
12:42 41.4169 -70.6381 43° Northeast 216 249 1,900 -420 Descending Boston Center
12:43 41.4433 -70.5903 54° Northeast 171 197 1,200 -600 Descending Boston Center
12:44 41.4181 -70.5825 167° South 65 75 700 -300 Descending Boston Center
12:45 41.4033 -70.5692 146° Southeast 65 75 700  Level Boston Center